Regional Weather Roundup
Issued by NWS

Home | Current Version | Previous Version | Text Only | Print | Product List | Glossary Off
Versions: 1 2 3 4 5 6 7 8 9 10 11 12 13 14 15 16 17 18 19 20 21 22 23 24 25 26 27 28 29 30 31 32 33 34 35 36 37 38 39 40 41 42 43 44 45 46 47 48 49 50

828
ASUS43 KDTX 210110
RWRMI
MICHIGAN HOURLY REGIONAL WEATHER ROUNDUP
NATIONAL WEATHER SERVICE DETROIT/PONTIAC MI
800 PM EST FRI JAN 20 2017

NOTE: "FAIR" INDICATES FEW OR NO CLOUDS BELOW 12,000 FEET WITH NO
SIGNIFICANT WEATHER AND/OR OBSTRUCTION TO VISIBILITY.

MIZ047>049-052>055-059>063-066>070-074>076-081>083-210200-
SOUTHEAST LOWER MICHIGAN

CITY           SKY/WX    TMP DP  RH WIND       PRES   REMARKS
ADRIAN         FOG       39  39 100 CALM      29.75R VSB 1/2
ALMA           FOG       33  33  99 W7        29.72R VSB 1/4 WCI  27
ANN ARBOR      FOG       39  39 100 S5        29.74R VSB 3/4
BAD AXE        FOG       33  33 100 CALM      29.72R VSB 1/4
CARO           FOG       34  34 100 CALM      29.71R VSB 1/4
DETROIT CITY   CLOUDY    40  40 100 S5        29.74S FOG
DETROIT        CLOUDY    40  40 100 S5        29.75R FOG
FLINT          CLOUDY    37  36  96 SW5       29.72F WCI  33
GROSSE ILE     CLOUDY    36  36  99 CALM      29.74R FOG
HILLSDALE      FOG       39  39 100 S5        29.72R VSB 1/2
HOWELL         FOG       37  37  97 S3        29.72R VSB 1

CITY           SKY/WX    TMP DP  RH WIND       PRES   REMARKS
JACKSON        CLOUDY    40  39  97 S3        29.72R FOG
LAMBERTVILLE   CLOUDY    46  44  93 SW6       29.75R FOG
LANSING        CLOUDY    37  34  89 S3        29.72R
LAPEER         CLOUDY    37  37 100 SW5       29.71F FOG     WCI  33
MASON          FOG       36  36 100 CALM      29.72R VSB 1/2
MONROE         FOG       41  41 100 CALM      29.74R VSB 1/2
MT. CLEMENS    FOG       37  37 100 CALM      29.71F VSB 3/4
PONTIAC        FOG       37  35  92 S3        29.71R VSB 3/4
PORT HOPE        N/A     35  35 100 CALM      29.70R
PORT HURON     CLOUDY    37  37 100 SW5       29.74R FOG     WCI  34
TRI CITIES     FOG       34  34 100 SW3       29.72R VSB 1/4
MIDLAND        FOG       34  33  96 CALM      29.70F VSB 1/2
TROY           CLOUDY    39  38  94 SW6       29.75S FOG     WCI  35
SAGINAW HB     FOG       34  32  93 CALM      29.72S VSB 1/2
$$
MIZ043>046-050>051-056>058-064>065-071>073-077>080-210200-
SOUTHWEST LOWER MICHIGAN

CITY           SKY/WX    TMP DP  RH WIND       PRES   REMARKS
BATTLE CREEK   FOG       40  40 100 SE5       29.72R VSB 1
BENTON HARBOR  CLOUDY    42  41  96 SE3       29.70R FOG
BIG RAPIDS     CLOUDY    33  32  96 S6        29.69R WCI  27
COLDWATER      CLOUDY    42  42 100 S3        29.72S FOG
FREMONT        FOG       34  34 100 SE3       29.70R VSB 3/4
HOLLAND        CLOUDY    38  37  97 E3        29.71R
GRAND RAPIDS   FOG       35  34  96 SE3       29.71R VSB 1/2
IONIA          FOG       33  33 100 CALM      29.71R VSB 1/4
KALAMAZOO      FOG       40  38  93 CALM      29.71R VSB 1/2
LUDINGTON      CLOUDY    35  34  96 S6        29.70R WCI  30
MARSHALL       FOG       39  39  99 CALM      29.72R VSB 1
MOUNT PLEASANT FOG       33  33  99 S3        29.71S VSB 1/2
MUSKEGON       FOG       37  36  96 SE6       29.71R VSB 3/4 WCI  32
SOUTH HAVEN    CLOUDY    40  40 100 SE3       29.70S FOG
$$
MIZ016>042-210200-
NORTHERN LOWER MICHIGAN

CITY           SKY/WX    TMP DP  RH WIND       PRES   REMARKS
ALPENA         FOG       33  32  96 CALM      29.72S VSB 1/4
BEAVER ISLAND  LGT RAIN  33  33 100 E3        29.70R
BELLAIRE       CLOUDY    33  33  96 CALM      29.70R
CADILLAC       CLOUDY    33  32  96 SE5       29.66F WCI  29
CHARLEVOIX     LGT RAIN  35  35 100 E3        29.73R
FRANKFORT      CLOUDY    36  36  99 CALM      29.68S
GAYLORD        CLOUDY    35  31  85 SE3       29.68R FOG
GRAYLING       CLOUDY    34  33  96 CALM      29.70R FOG
HARBOR SPRINGS FOG       33  33 100 NE8       29.70S VSB 3/4 WCI  26
HOUGHTON LAKE  CLOUDY    33  31  92 VRB3      29.69S FOG
MANISTEE       CLOUDY    36  34  92 VRB6      29.69R WCI  31
OSCODA         CLOUDY    35  34  96 CALM      29.71R FOG
PELLSTON       FOG       33  32  96 SE6       29.71S VSB 1/2 WCI  28
ROGERS CITY    FOG       33  32  96 CALM      29.72F VSB 1/4
TRAVERSE CITY  DRIZZLE   36  34  92 CALM      29.68R
$$
MIZ007>008-015-210200-
EASTERN UPPER MICHIGAN

CITY           SKY/WX    TMP DP  RH WIND       PRES   REMARKS
KINROSS        FOG       32  32 100 E10       29.72S VSB 1/4 WCI  24
MACKINAC ISLAN FOG       33  33 100 E5        29.70F VSB 1/4 WCI  29
NEWBERRY       CLOUDY    32  31  98 SE5       29.70R WCI  27
S. S. MARIE    CLOUDY    33  32  96 E7        29.72S FOG     WCI  27
MUNISING         N/A     35  34  96 S5        29.69S WCI  31
$$
MIZ004>006-011>014-085-210200-
CENTRAL UPPER MICHIGAN

CITY           SKY/WX    TMP DP  RH WIND       PRES   REMARKS
MANISTIQUE     MIX PCPN  32  32 100 E3        29.70S
ESCANABA       LGT RAIN  34  34 100 NE5       29.69S WCI  30
SAWYER-GWINN   LGT SNOW  34  32  93 CALM      29.67R
$$
MIZ001>003-009>011-084-210200-
WESTERN UPPER MICHIGAN

CITY           SKY/WX    TMP DP  RH WIND       PRES   REMARKS
IRON MOUNTAIN  CLOUDY    34  31  88 NE5       29.64S FOG     WCI  30
HOUGHTON       LGT RAIN  34  31  88 E3        29.66R FOG
COPPER HARBOR    N/A     34  33  96 VRB3      29.66S
IRONWOOD       LGT RAIN  36  34  92 SE5       29.63S WCI  32
$$

ABBREVIATIONS USED IN REMARKS
   TC - TEMPERATURE IN CELSIUS
  WCI - WIND CHILL INDEX
   HX - HEAT INDEX
  VSB - VISIBILITY





USA.gov is the U.S. government's official web portal to all federal, state and local government web resources and services.